Weather History for Carbondale, IL

Change the Weather History Date:

Friday, December 6, 2013

  Actual Average Record
Temperature  
Mean Temperature 22 °F -  
Max Temperature 24 °F 48 °F 71 °F (1998)
Min Temperature 19 °F 29 °F 1 °F (2002)
Degree Days  
Heating Degree Days 44    
Moisture  
Dew Point 18 °F    
Average Humidity 84    
Maximum Humidity 89    
Minimum Humidity 68    
Precipitation  
Precipitation 0.49 in - - ()
Sea Level Pressure  
Sea Level Pressure 30.33 in    
Wind  
Wind Speed 12 mph (North)    
Max Wind Speed 18 mph    
Max Gust Speed 24 mph    
Visibility 3 miles    
Events Fog , Snow    
Averages and records for this station are not official NWS values.
T = Trace of Precipitation, MM = Missing Value Source: NWS Daily Summary

Daily Weather History Graph

Daily Weather History Graph

Search for Another Location

Airport:

Trip Planner

Search our weather history database for the weather conditions in past years. The results will help you decide how hot, cold, wet, or windy it might be!

Date:

Astronomy

Dec. 06, 2013 Rise Set
Actual Time 6:58 AM CST 4:37 PM CST
Civil Twilight 6:29 AM CST 5:07 PM CST
Nautical Twilight 5:56 AM CST 5:39 PM CST
Astronomical Twilight 5:24 AM CST 6:11 PM CST
Moon 10:06 AM CST (12/6) 9:06 PM CST (12/6)
Length of Visible Light 10h 37m
Length of Day
9h 39m
Waxing Crescent, 19% of the Moon is Illuminated
Dec 6
Waxing Crescent
Dec 9
First Quarter
Dec 17
Full
Dec 25
Last Quarter
Jan 1
New

Hourly Weather History & Observations

Time (CST) Temp. Windchill Dew Point Humidity Pressure Visibility Wind Dir Wind Speed Gust Speed Precip Events Conditions
12:08 AM 24.1 °F 13.1 °F 21.0 °F 88% 30.26 in 2.5 mi NNW 11.5 mph - 0.01 in Snow Light Snow
12:23 AM 24.1 °F 12.5 °F 19.9 °F 84% 30.26 in 1.2 mi NNW 12.7 mph - 0.03 in Snow Light Snow
12:33 AM 24.1 °F 13.7 °F 19.9 °F 84% 30.27 in 0.8 mi North 10.4 mph - 0.04 in Snow Light Snow
12:52 AM 23.0 °F 12.4 °F 19.9 °F 88% 30.26 in 0.8 mi North 10.4 mph - 0.06 in Snow Light Snow
1:11 AM 23.0 °F 13.1 °F 19.9 °F 88% 30.26 in 1.0 mi North 9.2 mph - 0.03 in Snow Light Snow
1:18 AM 23.0 °F 13.1 °F 19.9 °F 88% 30.26 in 2.0 mi North 9.2 mph - 0.03 in Snow Light Snow
1:31 AM 23.0 °F 13.1 °F 19.9 °F 88% 30.27 in 1.2 mi North 9.2 mph - 0.04 in Snow Light Snow
1:52 AM 23.0 °F 11.7 °F 19.9 °F 88% 30.28 in 1.0 mi North 11.5 mph - 0.06 in Snow Light Snow
2:00 AM 23.0 °F 12.4 °F 19.9 °F 88% 30.26 in 0.8 mi North 10.4 mph - 0.00 in Snow Light Snow
2:06 AM 23.0 °F 11.7 °F 19.9 °F 88% 30.26 in 1.0 mi North 11.5 mph - 0.01 in Snow Light Snow
2:12 AM 23.0 °F 11.1 °F 19.9 °F 88% 30.27 in 1.0 mi North 12.7 mph - 0.01 in Snow Light Snow
2:52 AM 23.0 °F 12.4 °F 19.0 °F 85% 30.27 in 1.2 mi North 10.4 mph - 0.02 in Snow Light Snow
3:10 AM 23.0 °F 13.9 °F 19.0 °F 85% 30.24 in 2.5 mi North 8.1 mph - 0.01 in Snow Light Snow
3:13 AM 23.0 °F 11.7 °F 19.9 °F 88% 30.25 in 3.0 mi North 11.5 mph - 0.01 in Snow Light Snow
3:40 AM 23.0 °F 13.9 °F 19.0 °F 85% 30.23 in 2.5 mi North 8.1 mph - 0.02 in Snow Light Snow
3:52 AM 23.0 °F 11.7 °F 19.0 °F 85% 30.25 in 3.0 mi North 11.5 mph - 0.02 in Snow Light Snow
4:07 AM 23.0 °F 11.1 °F 19.0 °F 85% 30.25 in 2.5 mi North 12.7 mph - 0.00 in Snow Light Snow
4:17 AM 23.0 °F 12.4 °F 19.0 °F 85% 30.26 in 1.8 mi North 10.4 mph - 0.01 in Snow Light Snow
4:52 AM 23.0 °F 13.1 °F 19.0 °F 85% 30.30 in 0.8 mi North 9.2 mph - 0.03 in Snow Light Snow
5:13 AM 21.9 °F 12.5 °F 19.0 °F 89% 30.27 in 0.5 mi North 8.1 mph - 0.02 in Fog , Snow Snow
5:52 AM 21.9 °F 11.7 °F 19.0 °F 89% 30.31 in 0.8 mi North 9.2 mph - 0.07 in Snow Light Snow
6:05 AM 21.9 °F 12.5 °F 19.0 °F 89% 30.30 in 0.8 mi North 8.1 mph - 0.00 in Snow Light Snow
6:28 AM 21.9 °F 15.7 °F 19.0 °F 89% 30.29 in 0.5 mi North 4.6 mph - 0.03 in Fog , Snow Snow
6:52 AM 21.9 °F 10.4 °F 18.0 °F 85% 30.31 in 0.5 mi North 11.5 mph 19.6 mph 0.06 in Fog , Snow Snow
7:14 AM 21.9 °F 10.4 °F 18.0 °F 85% 30.30 in 0.8 mi North 11.5 mph - 0.01 in Snow Light Snow
7:29 AM 21.9 °F 11.0 °F 18.0 °F 85% 30.31 in 0.8 mi North 10.4 mph - 0.02 in Snow Light Snow
7:52 AM 21.9 °F 12.5 °F 19.0 °F 89% 30.34 in 0.5 mi North 8.1 mph - 0.03 in Fog , Snow Snow
8:12 AM 21.9 °F 9.8 °F 18.0 °F 85% 30.32 in 0.5 mi North 12.7 mph - 0.01 in Fog , Snow Snow
8:52 AM 21.9 °F 11.7 °F 18.0 °F 85% 30.36 in 0.5 mi North 9.2 mph - 0.04 in Fog , Snow Snow
9:52 AM 21.9 °F 10.4 °F 18.0 °F 85% 30.35 in 0.5 mi North 11.5 mph 18.4 mph 0.04 in Fog , Snow Snow
10:52 AM 21.9 °F 10.4 °F 18.0 °F 85% 30.36 in 0.5 mi North 11.5 mph - 0.02 in Fog , Snow Snow
11:03 AM 21.9 °F 9.2 °F 18.0 °F 85% 30.34 in 0.8 mi North 13.8 mph - 0.00 in Snow Light Snow
11:12 AM 21.9 °F 7.8 °F 18.0 °F 85% 30.35 in 1.0 mi North 17.3 mph - 0.00 in Snow Light Snow
11:37 AM 21.9 °F 9.2 °F 18.0 °F 85% 30.31 in 0.8 mi North 13.8 mph - 0.01 in Snow Light Snow
11:52 AM 21.9 °F 11.0 °F 18.0 °F 85% 30.34 in 0.5 mi North 10.4 mph - 0.01 in Fog , Snow Snow
12:18 PM 21.9 °F 7.8 °F 18.0 °F 85% 30.31 in 1.0 mi North 17.3 mph 24.2 mph 0.01 in Snow Light Snow
12:52 PM 21.9 °F 7.8 °F 17.1 °F 82% 30.32 in 1.2 mi North 17.3 mph - 0.01 in Snow Light Snow
1:22 PM 21.9 °F 7.3 °F 17.1 °F 82% 30.31 in 2.0 mi North 18.4 mph - 0.00 in Snow Light Snow
1:29 PM 21.9 °F 8.2 °F 17.1 °F 82% 30.31 in 2.0 mi North 16.1 mph - 0.00 in Snow Light Snow
1:50 PM 21.2 °F 7.3 °F 17.6 °F 86% 30.31 in 1.2 mi North 16.1 mph - 0.00 in Snow Light Snow
1:52 PM 21.9 °F 7.8 °F 17.1 °F 82% 30.32 in 1.2 mi North 17.3 mph - 0.00 in Snow Light Snow
1:59 PM 21.9 °F 7.3 °F 17.1 °F 82% 30.31 in 1.0 mi North 18.4 mph - 0.00 in Snow Light Snow
2:10 PM 21.9 °F 8.7 °F 17.1 °F 82% 30.31 in 0.8 mi North 15.0 mph - 0.00 in Snow Light Snow
2:40 PM 21.9 °F 8.7 °F 17.1 °F 82% 30.33 in 1.0 mi North 15.0 mph - 0.01 in Snow Light Snow
2:52 PM 21.9 °F 9.8 °F 18.0 °F 85% 30.36 in 1.2 mi NNW 12.7 mph - 0.01 in Snow Light Snow
3:11 PM 21.9 °F 8.2 °F 17.1 °F 82% 30.34 in 1.0 mi North 16.1 mph - 0.00 in Snow Light Snow
3:31 PM 21.9 °F 10.4 °F 18.0 °F 85% 30.34 in 0.5 mi North 11.5 mph - 0.00 in Fog , Snow Snow
3:52 PM 21.9 °F 9.2 °F 18.0 °F 85% 30.38 in 1.2 mi North 13.8 mph - 0.01 in Snow Light Snow
4:27 PM 21.0 °F 8.6 °F 17.1 °F 85% 30.36 in 2.5 mi North 12.7 mph - 0.00 in Snow Light Snow
4:52 PM 21.0 °F 8.1 °F 16.0 °F 81% 30.40 in 3.0 mi NNW 13.8 mph - 0.00 in Snow Light Snow
5:00 PM 21.0 °F 8.1 °F 16.0 °F 81% 30.37 in 4.0 mi North 13.8 mph - 0.00 in Snow Light Snow
5:33 PM 21.0 °F 8.6 °F 16.0 °F 81% 30.40 in 10.0 mi North 12.7 mph - 0.00 in   Overcast
5:52 PM 21.0 °F 9.3 °F 16.0 °F 81% 30.44 in 10.0 mi North 11.5 mph - 0.00 in   Overcast
6:29 PM 21.0 °F 9.3 °F 16.0 °F 81% 30.43 in 10.0 mi North 11.5 mph - N/A   Overcast
6:52 PM 21.0 °F 8.6 °F 15.1 °F 78% 30.47 in 10.0 mi North 12.7 mph - N/A   Overcast
7:52 PM 19.9 °F 7.9 °F 12.9 °F 74% 30.49 in 10.0 mi North 11.5 mph - N/A   Overcast
8:52 PM 19.9 °F 8.6 °F 12.9 °F 74% 30.52 in 10.0 mi NNW 10.4 mph - N/A   Overcast
9:52 PM 19.9 °F 7.9 °F 12.0 °F 71% 30.54 in 10.0 mi NNW 11.5 mph - N/A   Overcast
10:52 PM 19.0 °F 6.1 °F 10.9 °F 71% 30.57 in 10.0 mi NNW 12.7 mph - N/A   Overcast
11:52 PM 19.0 °F 5.6 °F 10.0 °F 68% 30.58 in 10.0 mi North 13.8 mph - N/A   Overcast